Satellite: GOLIAT Catalog number: 38085 Epoch time: 14100.70096196 Element set: 950 Inclination: 069.4614 deg RA of node: 173.3477 deg Eccentricity: 0.0443533 Arg of perigee: 094.7860 deg Mean anomaly: 270.4071 deg Mean motion: 14.88952735 rev/day Decay rate: 8.5872e-04 rev/day^2 Epoch rev: 11318 Checksum: 324
Satellite: HORYU-2 Catalog number: 38340 Epoch time: 14099.86099767 Element set: 818 Inclination: 098.2522 deg RA of node: 055.9426 deg Eccentricity: 0.0013415 Arg of perigee: 036.4753 deg Mean anomaly: 323.7360 deg Mean motion: 14.72248472 rev/day Decay rate: 3.525e-05 rev/day^2 Epoch rev: 10174 Checksum: 315
Satellite: RS-40 Catalog number: 38735 Epoch time: 14100.00552184 Element set: 537 Inclination: 082.4779 deg RA of node: 330.0649 deg Eccentricity: 0.0017795 Arg of perigee: 044.6882 deg Mean anomaly: 315.5623 deg Mean motion: 12.42558395 rev/day Decay rate: 2.4e-07 rev/day^2 Epoch rev: 7711 Checksum: 301
Satellite: PROITERES Catalog number: 38756 Epoch time: 14100.82504101 Element set: 728 Inclination: 098.2286 deg RA of node: 188.0206 deg Eccentricity: 0.0011836 Arg of perigee: 233.7380 deg Mean anomaly: 126.2735 deg Mean motion: 14.74834028 rev/day Decay rate: 1.095e-05 rev/day^2 Epoch rev: 8525 Checksum: 288
Satellite: BEESAT-3 Catalog number: 39134 Epoch time: 14100.20263257 Element set: 551 Inclination: 064.8769 deg RA of node: 353.6051 deg Eccentricity: 0.0021310 Arg of perigee: 319.8214 deg Mean anomaly: 040.1261 deg Mean motion: 15.04391663 rev/day Decay rate: 1.1263e-04 rev/day^2 Epoch rev: 5343 Checksum: 253
Satellite: BEESAT-2 Catalog number: 39136 Epoch time: 14099.90861803 Element set: 539 Inclination: 064.8761 deg RA of node: 354.8185 deg Eccentricity: 0.0021033 Arg of perigee: 319.2757 deg Mean anomaly: 040.6774 deg Mean motion: 15.03890004 rev/day Decay rate: 9.938e-05 rev/day^2 Epoch rev: 5338 Checksum: 323
Satellite: LO-75 Catalog number: 39382 Epoch time: 14100.52553263 Element set: 183 Inclination: 040.4960 deg RA of node: 140.1315 deg Eccentricity: 0.0012001 Arg of perigee: 118.2190 deg Mean anomaly: 241.9670 deg Mean motion: 15.35565272 rev/day Decay rate: 7.7603e-04 rev/day^2 Epoch rev: 2162 Checksum: 262
Satellite: ZACUBE-1 Catalog number: 39417 Epoch time: 14100.06535390 Element set: 267 Inclination: 097.7824 deg RA of node: 173.0227 deg Eccentricity: 0.0063867 Arg of perigee: 103.9632 deg Mean anomaly: 256.8593 deg Mean motion: 14.77846824 rev/day Decay rate: 3.541e-05 rev/day^2 Epoch rev: 2063 Checksum: 312
Satellite: TRITON-1 Catalog number: 39427 Epoch time: 14099.83295493 Element set: 119 Inclination: 097.7674 deg RA of node: 169.9988 deg Eccentricity: 0.0120221 Arg of perigee: 107.9450 deg Mean anomaly: 253.4860 deg Mean motion: 14.65178511 rev/day Decay rate: 3.301e-05 rev/day^2 Epoch rev: 2038 Checksum: 323
Satellite: DELFIN3XT Catalog number: 39428 Epoch time: 14099.92954381 Element set: 123 Inclination: 097.7666 deg RA of node: 169.5587 deg Eccentricity: 0.0131166 Arg of perigee: 108.8389 deg Mean anomaly: 252.7048 deg Mean motion: 14.62950229 rev/day Decay rate: 5.369e-05 rev/day^2 Epoch rev: 2035 Checksum: 345
Satellite: GOMX-1 Catalog number: 39430 Epoch time: 14100.71983600 Element set: 377 Inclination: 097.7629 deg RA of node: 168.9748 deg Eccentricity: 0.0158077 Arg of perigee: 109.4403 deg Mean anomaly: 252.3948 deg Mean motion: 14.56624314 rev/day Decay rate: 3.170e-05 rev/day^2 Epoch rev: 2039 Checksum: 312
Satellite: MO-76 Catalog number: 39436 Epoch time: 14099.84221432 Element set: 162 Inclination: 097.7826 deg RA of node: 174.5782 deg Eccentricity: 0.0029560 Arg of perigee: 116.5412 deg Mean anomaly: 243.8774 deg Mean motion: 14.88234105 rev/day Decay rate: 2.3738e-04 rev/day^2 Epoch rev: 2070 Checksum: 322
Satellite: LO-74 Catalog number: 39440 Epoch time: 14099.86085466 Element set: 117 Inclination: 097.7750 deg RA of node: 171.7128 deg Eccentricity: 0.0086329 Arg of perigee: 105.0957 deg Mean anomaly: 255.9797 deg Mean motion: 14.72812037 rev/day Decay rate: 3.515e-05 rev/day^2 Epoch rev: 2052 Checksum: 334
Satellite: PUCPSAT-1 Catalog number: 39442 Epoch time: 14099.75076106 Element set: 114 Inclination: 097.7849 deg RA of node: 174.4069 deg Eccentricity: 0.0036296 Arg of perigee: 109.4994 deg Mean anomaly: 251.0134 deg Mean motion: 14.85686715 rev/day Decay rate: 5.290e-05 rev/day^2 Epoch rev: 1946 Checksum: 333
Satellite: LITSAT-1 Catalog number: 39568 Epoch time: 14100.80357264 Element set: 86 Inclination: 051.6475 deg RA of node: 071.2446 deg Eccentricity: 0.0010622 Arg of perigee: 082.8586 deg Mean anomaly: 349.3769 deg Mean motion: 15.66431048 rev/day Decay rate: 2.59257e-03 rev/day^2 Epoch rev: 645 Checksum: 318
Satellite: LITUANSAT Catalog number: 39569 Epoch time: 14100.73957795 Element set: 128 Inclination: 051.6479 deg RA of node: 072.3399 deg Eccentricity: 0.0008578 Arg of perigee: 071.3619 deg Mean anomaly: 349.0517 deg Mean motion: 15.60460244 rev/day Decay rate: 1.36787e-03 rev/day^2 Epoch rev: 643 Checksum: 333
Satellite: SHINAISAT Catalog number: 39572 Epoch time: 14100.53535799 Element set: 61 Inclination: 065.0092 deg RA of node: 276.7910 deg Eccentricity: 0.0013289 Arg of perigee: 279.0741 deg Mean anomaly: 080.8876 deg Mean motion: 15.63025370 rev/day Decay rate: 5.5455e-04 rev/day^2 Epoch rev: 651 Checksum: 304
Satellite: OPUSAT Catalog number: 39575 Epoch time: 14100.87805149 Element set: 69 Inclination: 065.0107 deg RA of node: 274.7652 deg Eccentricity: 0.0007756 Arg of perigee: 289.1074 deg Mean anomaly: 070.9216 deg Mean motion: 15.69412858 rev/day Decay rate: 1.23077e-03 rev/day^2 Epoch rev: 658 Checksum: 319
Satellite: TEIKYOSAT Catalog number: 39576 Epoch time: 14100.55941938 Element set: 58 Inclination: 065.0141 deg RA of node: 276.4120 deg Eccentricity: 0.0009690 Arg of perigee: 301.0884 deg Mean anomaly: 058.9315 deg Mean motion: 15.64964180 rev/day Decay rate: 6.6736e-04 rev/day^2 Epoch rev: 652 Checksum: 303
Satellite: IFT-1 Catalog number: 39577 Epoch time: 14100.90129348 Element set: 63 Inclination: 065.0091 deg RA of node: 274.8671 deg Eccentricity: 0.0009259 Arg of perigee: 308.4394 deg Mean anomaly: 051.5906 deg Mean motion: 15.67609740 rev/day Decay rate: 9.6498e-04 rev/day^2 Epoch rev: 658 Checksum: 329
Satellite: CO-77 Catalog number: 39578 Epoch time: 14100.87089364 Element set: 61 Inclination: 065.0072 deg RA of node: 274.2032 deg Eccentricity: 0.0009912 Arg of perigee: 280.4280 deg Mean anomaly: 079.5758 deg Mean motion: 15.75981754 rev/day Decay rate: 2.61259e-03 rev/day^2 Epoch rev: 659 Checksum: 334
Satellite: STARS-II Catalog number: 39579 Epoch time: 14100.90953082 Element set: 73 Inclination: 065.0057 deg RA of node: 273.8492 deg Eccentricity: 0.0014280 Arg of perigee: 266.9957 deg Mean anomaly: 092.9566 deg Mean motion: 15.82392722 rev/day Decay rate: 5.23516e-03 rev/day^2 Epoch rev: 660 Checksum: 321
/EX
participants (1)
-
Ray Hoad